Temp
20 20 20 19 19 19 19 19 18 18 18 18 17 18 17 18 18 22 22 23 23 22 23 23 23 24 24 25 25 24 24 24 19 17 16 13 13 13 13 12 12 12 11
20 19 19 19 18 18 18 18 18 18 18 19 18 17 17 19 19 21 21 23 22 22 23 23 23 24 24 24 24 24 24 24 22 16 15 14 13 12 12 12 11 10 10
19 19 19 18 18 18 18 18 18 18 17 17 18 17 17 17 17 16 18 21 23 22 23 23 23 23 23 23 24 24 23 23 23 19 16 15 12 11 11 10 10 10 9
18 18 18 18 17 17 18 18 18 18 17 17 17 17 17 17 17 17 17 19 18 19 23 23 23 23 22 22 22 21 21 21 22 21 17 16 14 11 11 11 9 9 9
18 18 17 17 17 17 17 17 17 17 17 17 17 17 17 17 17 17 16 16 16 16 18 22 23 23 23 22 22 22 22 21 20 20 21 18 15 12 11 11 11 10 9
17 17 17 17 17 17 17 17 17 17 17 17 17 17 16 16 17 17 17 16 16 16 16 16 17 20 22 21 22 23 22 21 21 18 20 21 17 16 14 13 11 9 9
17 17 17 17 17 17 17 17 17 16 16 15 16 16 16 16 16 16 16 16 16 16 16 15 15 16 18 18 19 18 19 20 21 21 19 20 20 18 17 14 13 11 12
16 16 16 17 16 14 14 15 16 16 15 15 14 14 14 15 16 17 16 16 15 16 16 16 15 16 16 17 16 17 17 19 19 21 21 20 20 20 19 17 16 12 11
14 14 14 14 13 13 12 13 12 12 13 14 14 14 14 14 15 16 16 16 15 15 16 16 15 14 15 16 15 15 16 16 19 20 21 20 20 19 19 17 15 13 12
12 10 9 10 11 11 11 11 11 11 12 12 13 14 14 14 14 14 15 16 15 15 16 16 16 16 15 16 15 15 15 16 18 18 18 19 19 19 18 18 17 14 14
8 8 8 8 8 8 9 9 8 9 10 11 11 11 12 12 13 13 14 14 15 15 15 16 16 16 16 14 15 14 15 16 16 16 17 18 17 18 18 18 17 17 17
7 6 6 6 6 6 7 7 7 7 8 9 10 11 11 12 12 13 13 14 15 14 14 14 15 15 15 16 15 14 15 15 15 15 15 16 16 17 17 18 18 17 16
5 5 5 5 5 5 5 5 6 6 6 7 8 9 10 11 12 12 13 14 15 14 14 14 14 13 14 15 14 14 15 14 15 15 16 17 17 17 18 17 16 15 15
5 4 4 4 4 4 4 5 5 5 6 6 6 7 8 9 11 10 9 9 10 12 13 13 12 13 13 13 13 12 13 13 14 15 16 17 17 18 18 16 15 14 14
4 3 3 3 3 3 3 4 4 5 5 5 5 6 7 8 9 7 7 8 7 9 10 10 11 11 11 11 11 12 11 12 13 14 15 16 17 17 16 16 14 13 13
2 2 2 1 2 2 2 2 3 3 4 4 4 4 4 5 5 5 6 7 8 8 9 9 9 10 10 11 11 11 12 12 12 13 14 15 15 15 16 15 14 12 10
1 1 1 1 1 1 1 2 2 3 3 4 4 5 5 5 5 5 5 6 7 7 7 9 9 9 10 10 10 11 11 12 12 12 12 12 13 14 16 15 14 13 11
1 0 0 0 0 0 0 0 1 1 2 3 4 5 5 5 5 5 5 5 5 6 7 7 11 9 10 10 10 11 12 11 12 12 13 13 12 13 15 16 15 14 12
0 0 0 -0 -0 -0 -0 -0 0 1 1 2 3 3 4 5 5 5 5 4 5 6 7 9 10 11 10 11 10 10 10 11 12 12 12 12 12 12 13 14 16 15 12
-1 -1 -1 -0 -0 -1 -1 -0 0 1 1 2 2 3 4 5 5 5 4 4 5 6 8 9 10 11 12 11 11 11 10 11 12 12 12 12 13 11 12 13 14 15 13
-1 -1 -1 -0 -0 -0 0 0 0 0 1 1 1 2 3 4 4 4 5 6 7 7 8 9 10 11 12 12 12 11 10 11 12 12 11 11 11 12 12 13 13 15 15
-1 -1 -1 -1 -0 -0 0 -0 -0 0 0 0 1 1 1 2 3 3 3 4 5 6 7 8 9 10 11 12 13 13 12 12 13 12 13 12 12 12 13 13 14 18 16
-0 -0 -0 -0 -0 -0 -0 -0 0 0 0 0 0 1 1 1 1 2 3 3 4 5 6 7 8 9 9 10 10 11 11 14 15 15 15 14 13 12 13 15 16 17 18
0 0 -0 -0 -1 -1 -1 -1 -0 -0 0 0 0 0 1 1 1 1 2 3 4 4 5 6 6 7 8 8 9 9 10 11 14 16 16 16 16 16 16 17 17 18 18
1 1 0 -0 -1 -1 -1 -1 -1 -1 -1 -0 -0 -0 0 0 1 1 1 2 3 3 5 5 6 6 7 7 8 9 9 10 12 13 14 14 14 14 17 17 17 18 18
0 0 -0 -0 -1 -1 -1 -1 -1 -1 -1 -1 -1 -1 -0 -0 0 1 1 1 2 2 2 4 5 6 6 7 7 8 8 9 10 11 12 12 11 12 13 15 17 17 17
Height
789 788 787 787 785 782 780 776 773 771 768 762 763 759 760 757 771 769 765 767 772 774 774 773 776 779 783 786 791 795 799 802 808 818 820 824 826 826 827 829 831 834 834
788 788 787 786 785 783 780 777 771 769 769 767 759 753 755 760 764 769 767 763 765 769 773 776 774 779 780 784 788 791 795 799 801 810 817 820 823 826 827 828 830 833 833
788 788 786 785 784 783 781 777 772 766 766 766 765 761 758 757 756 747 743 765 771 765 769 770 767 770 775 782 785 789 793 797 799 802 810 814 820 824 827 828 829 830 833
788 787 786 784 783 781 780 777 773 767 762 762 762 762 759 756 757 758 750 760 770 759 756 764 764 762 766 775 781 784 789 796 801 803 808 812 815 819 825 826 828 828 831
787 786 785 783 781 779 777 775 772 769 764 757 755 759 761 760 756 757 759 759 765 767 736 756 753 754 756 767 773 778 781 791 797 804 805 809 812 816 818 822 824 826 828
785 785 783 781 778 776 774 773 771 768 764 759 752 749 757 760 760 759 758 759 762 754 756 756 770 761 756 763 770 774 781 788 792 801 805 804 804 807 813 814 819 823 827
782 782 780 777 775 772 770 768 766 764 763 760 756 750 742 751 756 758 756 754 756 756 753 751 754 744 751 760 767 777 779 783 784 792 799 802 803 803 807 811 814 816 821
780 779 777 774 771 769 767 765 762 758 757 756 754 751 747 739 742 748 752 749 748 748 748 747 743 745 751 756 760 763 773 777 781 780 790 796 800 801 802 805 808 812 817
780 778 777 772 770 768 766 764 761 758 755 752 750 748 745 741 738 736 741 744 745 743 742 744 746 747 750 753 757 760 767 771 777 778 783 789 793 797 800 802 806 811 814
780 780 777 773 769 767 765 762 759 757 753 750 746 744 742 740 738 734 731 733 736 739 740 739 738 741 742 747 752 755 759 763 768 772 776 782 788 790 795 799 802 805 808
782 779 775 772 769 766 763 760 757 754 750 747 743 740 738 736 736 734 731 727 726 729 732 735 738 738 739 740 744 748 752 756 757 764 769 776 781 786 791 796 799 800 803
779 776 773 770 767 763 760 757 754 750 747 742 739 735 733 731 731 729 726 724 722 721 722 726 729 731 732 734 737 740 744 752 754 757 763 769 770 776 784 790 794 798 799
775 771 768 764 761 758 754 751 748 745 741 738 734 731 728 727 726 725 718 715 715 715 715 717 721 724 725 727 728 732 738 742 745 750 754 758 764 768 776 784 792 793 796
769 765 762 758 754 751 748 745 741 738 735 732 730 727 724 723 722 721 717 713 711 710 710 712 714 718 721 721 722 726 731 734 736 741 745 752 759 763 771 775 785 789 792
764 760 756 752 748 744 741 737 734 731 729 727 725 723 720 718 716 716 717 714 711 710 710 711 712 713 715 718 719 721 723 726 729 734 739 746 751 757 762 770 778 784 785
759 755 751 747 742 738 734 728 726 723 720 719 717 716 714 713 711 712 714 715 714 707 706 708 709 710 712 713 717 717 718 719 723 726 732 741 746 751 754 764 772 778 780
755 750 745 740 735 731 727 723 717 713 711 709 708 706 705 704 704 705 707 708 710 710 708 707 708 708 710 711 714 713 713 712 717 720 727 735 741 737 745 755 764 770 774
750 745 740 734 730 725 721 717 713 709 704 701 700 698 696 695 695 696 699 702 703 705 707 705 704 704 706 708 709 711 713 712 714 717 723 727 736 732 739 748 755 760 766
746 740 735 730 725 720 715 711 707 702 698 695 692 691 689 689 689 689 691 693 695 697 700 702 700 701 702 704 707 709 710 712 712 717 721 723 729 733 740 744 747 753 757
743 737 732 726 719 714 709 705 700 697 693 689 687 684 684 683 682 682 683 685 687 689 691 694 696 697 698 700 702 706 708 708 710 712 719 724 727 734 737 740 744 746 749
740 733 728 722 716 710 705 699 695 691 687 683 680 679 678 677 676 676 676 676 677 679 682 685 688 691 691 694 697 698 703 705 706 708 713 719 723 727 733 735 737 740 743
737 731 725 719 713 707 701 696 690 685 681 677 673 671 671 670 669 669 669 670 670 672 674 677 679 681 684 687 690 694 695 698 699 702 706 711 713 721 728 731 733 732 737
735 729 722 716 710 703 697 691 685 680 675 671 668 665 663 661 661 660 660 662 664 666 667 670 672 674 678 681 684 687 689 690 689 693 698 703 710 715 721 724 725 727 731
733 727 720 713 707 700 694 687 681 675 670 665 661 658 656 654 652 651 652 654 655 658 660 663 666 668 672 675 679 682 685 686 687 688 692 699 704 710 712 717 720 722 727
732 725 718 711 704 697 690 684 677 671 665 660 655 652 649 647 645 643 644 646 648 650 653 655 659 663 667 670 673 677 682 683 685 687 690 696 700 703 707 711 714 719 724
731 724 717 710 702 695 687 679 672 666 660 654 650 646 643 640 638 638 637 639 641 643 646 650 653 656 660 664 668 672 676 679 682 685 689 693 697 701 703 707 712 717 718
Wind_Speed
11 13 14 17 18 17 18 20 23 25 22 27 20 17 28 53 46 34 33 30 36 29 29 29 27 27 13 18 13 11 10 6 14 11 9 12 9 8 8 7 5 2 1
10 11 13 13 17 17 20 23 25 27 25 20 21 23 16 18 30 32 42 30 32 32 28 26 31 28 24 20 21 18 14 13 15 19 16 9 9 6 7 8 6 4 3
12 13 13 14 13 17 20 21 23 26 27 25 21 20 20 18 21 19 48 22 26 31 32 36 32 32 30 18 16 16 9 9 10 16 14 12 11 11 10 7 6 5 4
15 15 15 15 17 17 19 20 22 24 27 25 23 21 21 19 14 14 7 35 40 39 40 39 34 34 31 24 17 14 10 7 3 10 17 14 11 15 11 10 8 8 7
15 15 16 17 18 20 21 20 21 22 25 27 26 22 22 19 11 14 8 7 24 40 31 37 33 35 35 33 27 20 14 6 3 12 10 13 14 16 17 13 10 7 8
18 19 20 20 19 19 20 21 22 22 22 23 26 27 20 19 18 19 13 10 5 2 32 22 33 33 32 30 26 22 15 12 7 17 16 7 22 18 17 16 16 8 5
19 20 22 22 23 22 21 21 21 20 20 21 23 28 32 24 17 19 20 16 12 9 7 25 29 27 31 31 20 18 27 28 29 22 17 13 10 19 20 20 15 10 7
23 23 23 23 20 22 25 22 22 21 19 18 22 26 31 33 29 21 17 21 18 16 11 9 21 27 32 35 36 37 40 36 32 28 24 16 6 11 16 19 15 15 9
24 24 26 25 25 23 25 24 26 28 23 20 20 23 29 32 34 33 24 18 14 17 17 14 21 29 34 34 36 37 41 37 34 28 26 23 16 13 15 17 18 15 5
24 25 26 26 26 25 24 26 26 27 26 25 24 23 25 30 30 32 34 26 16 16 18 18 22 23 32 38 42 39 35 41 40 31 26 23 18 17 18 17 16 16 11
27 27 27 26 27 27 27 25 26 26 26 26 25 25 25 28 34 34 35 31 22 16 16 19 20 23 28 36 46 38 41 41 34 34 34 30 18 20 22 22 17 15 14
24 25 25 25 25 25 27 27 28 28 29 28 27 26 25 26 29 35 36 36 31 24 20 20 20 20 22 28 36 45 44 37 28 31 29 29 30 27 25 23 24 17 13
25 25 26 27 27 27 26 26 24 25 24 25 24 27 24 25 25 29 31 42 39 28 26 26 25 21 26 23 23 35 41 36 31 30 30 29 30 30 27 22 18 18 10
25 25 26 25 26 27 26 25 24 24 23 22 22 22 23 23 25 14 18 18 18 27 26 25 23 25 25 24 21 24 37 32 35 31 29 28 27 29 31 31 28 24 20
23 25 26 25 24 25 25 25 24 25 25 24 23 22 21 22 22 16 23 19 21 18 16 16 14 16 22 20 14 16 28 34 31 31 27 30 33 29 30 36 31 27 22
26 25 25 27 27 26 26 27 27 29 30 32 34 35 33 36 40 35 31 19 20 12 15 12 13 11 9 13 18 16 22 25 27 26 25 26 27 27 33 35 31 26 23
27 27 26 26 26 25 23 23 23 24 26 27 28 31 35 36 37 35 33 32 26 20 11 11 11 13 17 18 13 15 17 23 27 22 18 21 18 30 38 36 31 26 23
27 26 26 26 25 24 23 24 24 23 21 21 22 23 27 30 29 30 30 24 22 19 20 18 13 15 19 15 16 21 14 17 21 23 23 22 20 12 18 32 31 28 26
26 25 26 25 25 25 25 24 23 23 22 22 22 22 23 23 26 25 24 20 19 20 22 20 19 16 17 23 21 16 22 22 21 23 24 27 23 15 19 13 29 32 31
25 27 27 25 25 24 23 21 20 20 21 20 20 20 20 19 19 18 21 20 22 23 22 25 23 22 19 20 27 27 21 25 25 22 23 23 20 17 16 21 16 31 31
26 26 27 24 23 23 22 21 20 20 20 19 21 21 21 21 18 17 19 21 23 24 26 27 25 26 21 27 22 27 32 24 25 27 25 28 25 21 22 20 20 24 33
26 26 25 25 25 23 22 23 22 20 20 20 20 20 22 21 21 22 23 21 20 23 22 25 28 27 25 22 19 26 24 28 32 31 28 26 26 24 25 26 30 17 34
25 25 25 25 24 25 24 23 21 21 20 20 20 20 19 19 20 22 24 24 24 22 21 24 25 26 28 27 25 22 16 22 27 30 26 27 31 28 33 28 27 22 21
25 25 25 25 25 26 23 24 23 23 23 21 19 19 18 18 22 23 23 23 22 24 23 25 22 22 24 28 32 24 19 20 17 24 26 30 28 30 25 27 22 25 22
26 26 26 25 25 26 26 25 25 24 23 22 20 19 17 18 18 21 21 21 21 17 20 24 25 25 26 26 24 29 24 23 20 12 12 10 9 7 22 23 22 22 22
28 28 28 27 27 27 26 27 26 25 24 22 21 20 19 18 18 17 20 21 22 23 25 23 22 26 27 31 31 29 28 27 24 20 14 7 5 7 9 11 21 18 10
Wind_Direction
23 6 354 356 354 353 349 341 337 335 344 344 350 328 254 217 228 230 213 214 210 204 200 200 204 205 205 176 183 189 185 187 115 116 132 139 122 128 139 153 168 203 210
11 356 349 353 344 340 332 327 325 330 335 345 351 341 326 248 224 248 242 216 208 207 202 201 203 205 208 188 187 192 189 192 143 144 148 151 137 160 165 173 185 202 204
345 342 337 341 335 328 321 324 321 322 327 332 339 343 345 335 356 260 240 254 243 209 207 206 200 195 206 200 183 183 168 155 169 153 149 162 152 181 176 180 193 206 219
335 323 321 323 321 310 308 311 315 317 317 320 327 332 332 340 355 8 290 234 262 284 211 212 206 196 191 185 171 124 112 61 255 158 156 174 167 183 193 191 186 212 228
317 314 309 309 303 307 309 305 304 304 306 311 315 320 324 335 339 358 346 303 234 259 273 215 208 206 192 186 179 158 157 147 308 296 199 178 160 164 186 201 193 204 224
318 308 303 298 290 291 296 301 303 301 300 300 305 311 314 317 323 327 321 316 318 307 208 231 233 208 193 185 178 181 184 185 226 283 284 245 179 190 180 179 165 161 210
311 305 302 299 298 291 283 284 285 291 304 311 309 305 305 304 297 308 323 309 304 297 285 233 200 199 174 176 175 183 206 219 212 225 265 293 198 191 181 175 184 170 195
319 315 307 301 323 341 340 324 295 278 277 288 300 307 311 309 306 303 297 303 304 296 276 239 201 191 195 198 205 212 217 212 212 211 227 262 236 181 188 181 188 160 161
314 317 318 322 326 323 322 324 319 318 313 284 281 288 297 300 305 303 296 279 277 280 281 261 220 199 204 207 206 202 206 218 218 208 218 225 230 203 174 173 163 159 148
320 324 328 327 323 321 316 305 305 303 300 299 293 283 283 292 300 302 301 282 264 269 274 265 256 240 217 210 205 204 209 214 215 225 216 220 223 199 188 197 196 175 178
320 320 316 314 312 311 307 303 307 307 301 288 284 288 286 285 288 288 292 289 270 268 266 267 258 250 233 216 214 209 213 220 216 214 213 208 212 199 197 202 194 192 211
311 306 305 304 304 302 298 297 297 295 293 287 289 279 276 275 279 283 280 275 274 266 266 269 270 267 260 240 227 225 227 230 214 203 206 206 197 200 212 217 214 214 236
307 302 300 298 297 295 295 293 291 287 281 283 279 276 282 286 287 291 289 266 260 251 257 257 259 266 263 261 244 233 228 219 205 201 201 198 197 197 205 201 196 187 166
309 308 306 302 299 295 289 284 282 281 276 270 273 279 270 269 273 300 341 338 292 251 244 246 251 254 259 256 251 238 232 214 206 204 197 197 196 193 194 178 179 177 157
311 309 306 302 300 299 292 285 280 277 274 273 273 278 276 264 267 306 329 347 345 273 234 226 215 221 225 224 224 239 225 212 209 199 196 204 203 197 181 174 179 178 170
313 310 307 303 300 297 294 291 285 278 277 272 271 267 269 270 274 281 291 292 321 320 210 203 209 203 221 216 224 209 200 202 193 184 188 206 208 209 180 172 175 171 162
310 307 307 303 301 297 296 292 292 292 284 277 272 271 266 264 265 268 270 279 288 302 280 249 212 221 236 243 260 210 212 198 204 213 202 212 225 210 171 167 167 163 160
311 308 307 303 301 298 295 292 289 288 287 284 279 275 272 265 264 264 266 267 267 264 260 268 248 211 217 228 243 239 231 211 201 205 213 231 249 189 193 174 169 167 160
317 312 308 304 300 298 293 286 284 284 281 281 281 278 275 267 266 260 258 241 233 237 238 249 251 234 215 230 230 237 232 223 200 201 202 208 229 234 224 225 175 171 162
320 319 320 311 304 299 295 289 285 284 283 279 276 274 271 270 256 249 237 229 229 232 228 231 238 241 236 223 230 232 245 224 216 197 200 203 211 231 235 223 240 173 169
320 319 321 318 313 308 300 296 291 287 280 279 276 273 270 268 264 253 247 242 234 232 229 228 229 233 237 226 225 216 228 233 210 201 198 204 200 207 238 239 239 210 174
325 318 316 312 311 309 307 306 298 293 288 282 279 275 273 270 256 251 251 258 242 236 235 228 227 229 231 236 234 224 223 230 211 206 203 200 200 212 225 230 232 234 171
328 325 324 321 319 317 313 307 303 299 293 290 284 278 268 259 256 252 243 243 244 243 238 232 228 225 227 234 245 258 270 247 214 201 198 194 195 206 213 210 216 234 184
324 326 324 321 322 320 317 313 309 306 299 291 289 281 273 267 257 251 246 239 239 233 233 233 229 221 220 224 233 244 259 266 263 202 192 207 208 212 206 201 216 213 219
333 329 328 326 323 321 319 316 313 311 309 305 299 291 284 273 278 248 245 239 236 239 229 221 219 222 222 222 225 233 239 246 248 224 200 224 241 216 208 202 210 219 215
338 335 333 330 327 322 318 315 313 313 312 308 305 298 292 286 273 271 244 240 233 230 232 233 229 219 221 223 223 228 231 238 240 223 214 207 234 277 255 234 219 225 215